カタログに戻る

SL-8 DEB

運用中LEO
NORAD 11113·DEBRIS·🇷🇺 Russia

打ち上げ Nov 16, 1978 から Plesetsk Cosmodrome

Loading…

次のパス (今後24時間)

TLE

最新Source: Space-Track

元期: Sep 14, 2026, 12:55 UTC

1 11113U 78105C   26257.53855608  .00003182  00000-0  33656-3 0  9990
2 11113  74.0169 299.6525 0004831 101.4748 258.6976 14.89651519533222

AllMySatでSL-8 DEBをリアルタイム追跡

Download on the App Store